| time (UTC) | temp C | wind direction | speed KPH | gust KPH | rain 1hr cm | rain 24hr cm | rain mn cm | humidity % | barometer mb |
| 20260507060841 | 10 | 148 | 1.6 | 3.2 | 0.00 | 0.00 | 0.00 | 97 | 1067.1 |
| 20260507060337 | 10 | 42 | 8.0 | 9.7 | 0.00 | 0.00 | 0.00 | 99 | 1067.0 |
| 20260507055834 | 10 | 278 | 4.8 | 4.8 | 0.00 | 0.00 | 0.00 | 99 | 1067.1 |
| 20260507055329 | 10 | 318 | 6.4 | 9.7 | 0.00 | 0.00 | 0.00 | 99 | 1067.1 |
| 20260507054826 | 10 | 305 | 6.4 | 9.7 | 0.00 | 0.00 | 0.00 | 99 | 1067.2 |
| 20260507054322 | 10 | 215 | 1.6 | 1.6 | 0.00 | 0.00 | 0.00 | 99 | 1067.1 |
| 20260507053819 | 10 | 265 | 4.8 | 4.8 | 0.00 | 0.00 | 0.00 | 99 | 1067.1 |
| 20260507053317 | 10 | 311 | 3.2 | 6.4 | 0.00 | 0.00 | 0.00 | 99 | 1067.2 |
| 20260507052816 | 10 | 319 | 9.7 | 11.3 | 0.00 | 0.00 | 0.00 | 99 | 1067.3 |
| 20260507052312 | 10 | 320 | 8.0 | 11.3 | 0.00 | 0.00 | 0.00 | 99 | 1067.3 |
| 20260507051810 | 10 | 327 | 3.2 | 4.8 | 0.00 | 0.00 | 0.00 | 99 | 1067.3 |
| 20260507051307 | 10 | 310 | 3.2 | 6.4 | 0.00 | 0.00 | 0.00 | 99 | 1067.2 |
| 20260507050804 | 10 | 313 | 9.7 | 9.7 | 0.00 | 0.00 | 0.00 | 99 | 1067.2 |
| 20260507050300 | 10 | 256 | 3.2 | 3.2 | 0.00 | 0.00 | 0.00 | 99 | 1066.8 |
| 20260507045757 | 10 | 285 | 3.2 | 6.4 | 0.00 | 2.82 | 2.82 | 99 | 1066.9 |
| 20260507045253 | 10 | 316 | 9.7 | 9.7 | 0.00 | 2.82 | 2.82 | 99 | 1066.9 |
| 20260507044751 | 10 | 94 | 3.2 | 3.2 | 0.00 | 2.82 | 2.82 | 99 | 1067.1 |
| 20260507044247 | 10 | 233 | 1.6 | 3.2 | 0.00 | 2.82 | 2.82 | 99 | 1067.1 |
| 20260507043743 | 9 | 79 | 4.8 | 9.7 | 0.00 | 2.82 | 2.82 | 99 | 1067.1 |
| 20260507043240 | 9 | 300 | 1.6 | 3.2 | 0.00 | 2.82 | 2.82 | 99 | 1066.9 |
| 20260507042737 | 9 | 247 | 1.6 | 1.6 | 0.00 | 2.82 | 2.82 | 99 | 1066.8 |
| 20260507042231 | 9 | 323 | 6.4 | 11.3 | 0.00 | 2.82 | 2.82 | 99 | 1066.9 |
| 20260507041729 | 9 | 302 | 3.2 | 3.2 | 0.00 | 2.82 | 2.82 | 99 | 1066.9 |
| 20260507041226 | 9 | 259 | 3.2 | 4.8 | 0.00 | 2.82 | 2.82 | 99 | 1066.9 |
| 20260507040723 | 9 | 228 | 3.2 | 3.2 | 0.00 | 2.82 | 2.82 | 99 | 1067.0 |
| 20260507040219 | 9 | 303 | 3.2 | 6.4 | 0.00 | 2.82 | 2.82 | 99 | 1066.9 |
| 20260507035715 | 9 | 286 | 4.8 | 4.8 | 0.00 | 2.82 | 2.82 | 99 | 1066.8 |
| 20260507035211 | 9 | 285 | 6.4 | 9.7 | 0.00 | 2.82 | 2.82 | 99 | 1066.8 |
| 20260507034708 | 9 | 101 | 3.2 | 3.2 | 0.00 | 2.82 | 2.82 | 99 | 1066.6 |
| 20260507034206 | 8 | 308 | 4.8 | 6.4 | 0.00 | 2.82 | 2.82 | 99 | 1066.4 |
| 20260507033704 | 8 | 37 | 3.2 | 4.8 | 0.00 | 2.82 | 2.82 | 99 | 1066.5 |
| 20260507033201 | 8 | 151 | 4.8 | 6.4 | 0.00 | 2.82 | 2.82 | 99 | 1066.3 |
| 20260507032658 | 8 | 309 | 8.0 | 11.3 | 0.00 | 2.82 | 2.82 | 99 | 1066.4 |
| 20260507032153 | 8 | 299 | 4.8 | 4.8 | 0.00 | 2.82 | 2.82 | 99 | 1066.4 |
| 20260507031651 | 8 | 313 | 1.6 | 3.2 | 0.00 | 2.82 | 2.82 | 99 | 1066.3 |
| 20260507031147 | 8 | 339 | 6.4 | 11.3 | 0.00 | 2.82 | 2.82 | 99 | 1066.4 |
| 20260507030644 | 8 | 183 | 3.2 | 4.8 | 0.00 | 2.82 | 2.82 | 99 | 1066.3 |
| 20260507030142 | 8 | 303 | 6.4 | 6.4 | 0.00 | 2.82 | 2.82 | 99 | 1066.2 |
| 20260507025639 | 8 | 249 | 6.4 | 9.7 | 0.00 | 2.82 | 2.82 | 99 | 1066.1 |
| 20260507025136 | 8 | 287 | 4.8 | 4.8 | 0.00 | 2.82 | 2.82 | 99 | 1066.0 |
| 20260507024634 | 8 | 284 | 3.2 | 4.8 | 0.00 | 2.82 | 2.82 | 99 | 1066.1 |
| 20260507024131 | 8 | 297 | 6.4 | 9.7 | 0.00 | 2.82 | 2.82 | 99 | 1065.7 |
| 20260507023626 | 8 | 215 | 1.6 | 1.6 | 0.00 | 2.82 | 2.82 | 99 | 1066.2 |
| 20260507023124 | 8 | 299 | 4.8 | 4.8 | 0.00 | 2.82 | 2.82 | 99 | 1065.7 |
| 20260507022621 | 8 | 317 | 3.2 | 4.8 | 0.00 | 2.82 | 2.82 | 99 | 1065.7 |
| 20260507022116 | 8 | 303 | 1.6 | 0.0 | 0.00 | 2.82 | 2.82 | 99 | 1065.9 |
| 20260507021613 | 8 | 303 | 3.2 | 4.8 | 0.00 | 2.82 | 2.82 | 99 | 1065.6 |
| 20260507021108 | 8 | 183 | 1.6 | 1.6 | 0.00 | 2.82 | 2.82 | 99 | 1065.6 |
| 20260507020607 | 8 | 314 | 3.2 | 3.2 | 0.00 | 2.82 | 2.82 | 99 | 1065.4 |
| 20260507015602 | 8 | 301 | 1.6 | 1.6 | 0.00 | 2.82 | 2.82 | 99 | 1065.3 |
| 20260507015058 | 8 | 297 | 3.2 | 4.8 | 0.00 | 2.82 | 2.82 | 99 | 1065.6 |
| 20260507014555 | 8 | 12 | 6.4 | 6.4 | 0.00 | 2.82 | 2.82 | 99 | 1065.3 |
| 20260507014050 | 8 | 305 | 3.2 | 4.8 | 0.00 | 2.82 | 2.82 | 99 | 1065.2 |
| 20260507013548 | 8 | 162 | 3.2 | 3.2 | 0.00 | 2.82 | 2.82 | 99 | 1065.5 |
| 20260507013045 | 8 | 168 | 4.8 | 4.8 | 0.00 | 2.82 | 2.82 | 99 | 1065.2 |
| 20260507012542 | 8 | 309 | 6.4 | 9.7 | 0.00 | 2.82 | 2.82 | 99 | 1064.9 |
| 20260507012038 | 8 | 304 | 4.8 | 9.7 | 0.00 | 2.82 | 2.82 | 99 | 1065.0 |
| 20260507011536 | 8 | 262 | 3.2 | 3.2 | 0.00 | 2.82 | 2.82 | 99 | 1065.2 |
| 20260507011031 | 8 | 301 | 1.6 | 3.2 | 0.00 | 2.82 | 2.82 | 99 | 1065.2 |
| 20260507010526 | 8 | 290 | 3.2 | 6.4 | 0.00 | 2.82 | 2.82 | 99 | 1065.3 |
| 20260507010023 | 8 | 296 | 6.4 | 6.4 | 0.00 | 2.82 | 2.82 | 99 | 1065.0 |
| 20260507005521 | 8 | 39 | 9.7 | 11.3 | 0.00 | 2.82 | 2.82 | 99 | 1064.8 |
| 20260507005017 | 8 | 283 | 9.7 | 12.9 | 0.00 | 2.82 | 2.82 | 99 | 1064.9 |
| 20260507004514 | 8 | 178 | 1.6 | 3.2 | 0.00 | 2.82 | 2.82 | 99 | 1064.7 |
| 20260507004011 | 8 | 96 | 6.4 | 9.7 | 0.00 | 2.82 | 2.82 | 99 | 1064.3 |
| 20260507003506 | 8 | 196 | 1.6 | 3.2 | 0.00 | 2.82 | 2.82 | 99 | 1064.4 |
| 20260507003001 | 8 | 286 | 4.8 | 6.4 | 0.00 | 2.82 | 2.82 | 99 | 1064.6 |
| 20260507002458 | 8 | 233 | 4.8 | 9.7 | 0.00 | 2.82 | 2.82 | 99 | 1064.7 |
| 20260507001955 | 8 | 309 | 6.4 | 6.4 | 0.00 | 2.82 | 2.82 | 99 | 1064.5 |
| 20260507001451 | 8 | 269 | 6.4 | 9.7 | 0.00 | 2.82 | 2.82 | 99 | 1064.5 |
| 20260507000949 | 8 | 289 | 3.2 | 4.8 | 0.00 | 2.82 | 2.82 | 99 | 1064.3 |
| 20260507000445 | 8 | 300 | 6.4 | 6.4 | 0.00 | 2.82 | 2.82 | 99 | 1064.4 |
| 20260506235940 | 8 | 265 | 4.8 | 6.4 | 0.00 | 2.82 | 2.82 | 99 | 1064.6 |
| 20260506235438 | 8 | 286 | 8.0 | 9.7 | 0.00 | 2.82 | 2.82 | 99 | 1064.7 |
| 20260506234933 | 8 | 1 | 4.8 | 6.4 | 0.00 | 2.82 | 2.82 | 99 | 1064.8 |
| 20260506234431 | 8 | 230 | 3.2 | 4.8 | 0.00 | 2.82 | 2.82 | 99 | 1064.9 |
| 20260506233929 | 8 | 252 | 8.0 | 9.7 | 0.00 | 2.82 | 2.82 | 99 | 1065.3 |
| 20260506233425 | 8 | 192 | 1.6 | 1.6 | 0.00 | 2.82 | 2.82 | 99 | 1065.1 |
| 20260506232921 | 8 | 226 | 3.2 | 3.2 | 0.00 | 2.82 | 2.82 | 99 | 1065.1 |
| 20260506232418 | 8 | 275 | 3.2 | 3.2 | 0.00 | 2.82 | 2.82 | 99 | 1065.0 |
| 20260506231914 | 8 | 232 | 3.2 | 3.2 | 0.00 | 2.82 | 2.82 | 99 | 1065.1 |
| 20260506231412 | 8 | 176 | 1.6 | 1.6 | 0.00 | 2.82 | 2.82 | 99 | 1065.2 |
| 20260506230909 | 8 | 204 | 3.2 | 3.2 | 0.00 | 2.82 | 2.82 | 99 | 1065.3 |
| 20260506230405 | 8 | 225 | 1.6 | 1.6 | 0.00 | 2.82 | 2.82 | 99 | 1065.2 |
| 20260506225901 | 8 | 247 | 3.2 | 4.8 | 0.00 | 2.82 | 2.82 | 99 | 1065.0 |
| 20260506225359 | 8 | 244 | 3.2 | 1.6 | 0.00 | 2.82 | 2.82 | 99 | 1064.7 |
| 20260506224856 | 8 | 293 | 9.7 | 16.1 | 0.00 | 2.82 | 2.82 | 99 | 1064.5 |
| 20260506224353 | 8 | 316 | 6.4 | 6.4 | 0.00 | 2.82 | 2.82 | 99 | 1064.1 |
| 20260506223849 | 8 | 334 | 3.2 | 3.2 | 0.00 | 2.82 | 2.82 | 99 | 1064.5 |
| 20260506223345 | 8 | 312 | 8.0 | 11.3 | 0.00 | 2.82 | 2.82 | 99 | 1064.2 |
| 20260506222842 | 8 | 29 | 6.4 | 9.7 | 0.00 | 2.82 | 2.82 | 99 | 1064.1 |
| 20260506222337 | 8 | 359 | 8.0 | 9.7 | 0.00 | 2.82 | 2.82 | 99 | 1064.2 |
| 20260506221835 | 8 | 106 | 6.4 | 11.3 | 0.00 | 2.82 | 2.82 | 99 | 1064.2 |
| 20260506221333 | 8 | 300 | 8.0 | 11.3 | 0.00 | 2.82 | 2.82 | 99 | 1064.0 |
| 20260506220830 | 8 | 345 | 6.4 | 11.3 | 0.00 | 2.82 | 2.82 | 99 | 1063.9 |
| 20260506220325 | 8 | 285 | 6.4 | 9.7 | 0.00 | 2.82 | 2.82 | 99 | 1064.0 |
| 20260506215823 | 8 | 302 | 8.0 | 12.9 | 0.00 | 2.82 | 2.82 | 99 | 1063.7 |
| 20260506215318 | 8 | 111 | 4.8 | 6.4 | 0.00 | 2.82 | 2.82 | 99 | 1063.9 |
| 20260506214814 | 8 | 243 | 4.8 | 6.4 | 0.00 | 2.82 | 2.82 | 99 | 1063.5 |
| 20260506214311 | 8 | 207 | 4.8 | 6.4 | 0.00 | 2.82 | 2.82 | 99 | 1063.4 |
| 20260506213810 | 8 | 287 | 8.0 | 11.3 | 0.00 | 2.82 | 2.82 | 99 | 1063.4 |
| 20260506213306 | 8 | 317 | 4.8 | 9.7 | 0.00 | 2.82 | 2.82 | 99 | 1063.5 |
| 20260506212804 | 8 | 285 | 6.4 | 6.4 | 0.00 | 2.82 | 2.82 | 99 | 1063.7 |
| 20260506212259 | 7 | 265 | 6.4 | 9.7 | 0.00 | 2.82 | 2.82 | 99 | 1064.0 |
| 20260506211754 | 8 | 53 | 6.4 | 11.3 | 0.00 | 2.82 | 2.82 | 99 | 1063.9 |
| 20260506211251 | 8 | 320 | 4.8 | 9.7 | 0.00 | 2.82 | 2.82 | 99 | 1064.0 |
| 20260506210748 | 7 | 163 | 6.4 | 9.7 | 0.00 | 2.82 | 2.82 | 99 | 1064.4 |
| 20260506210245 | 7 | 328 | 3.2 | 9.7 | 0.00 | 2.82 | 2.82 | 99 | 1064.3 |
| 20260506205742 | 7 | 251 | 6.4 | 9.7 | 0.00 | 2.82 | 2.82 | 99 | 1064.3 |
| 20260506205238 | 8 | 212 | 6.4 | 9.7 | 0.00 | 2.82 | 2.82 | 99 | 1064.0 |
| 20260506204735 | 7 | 79 | 3.2 | 3.2 | 0.00 | 2.82 | 2.82 | 99 | 1064.0 |
| 20260506204232 | 7 | 320 | 4.8 | 9.7 | 0.00 | 2.82 | 2.82 | 99 | 1063.6 |
| 20260506203730 | 7 | 54 | 8.0 | 14.5 | 0.00 | 2.82 | 2.82 | 99 | 1063.5 |
| 20260506203227 | 7 | 109 | 4.8 | 9.7 | 0.00 | 2.82 | 2.82 | 99 | 1063.3 |
| 20260506202724 | 7 | 273 | 11.3 | 14.5 | 0.00 | 2.82 | 2.82 | 99 | 1063.5 |
| 20260506202221 | 7 | 217 | 3.2 | 4.8 | 0.00 | 2.82 | 2.82 | 99 | 1064.0 |
| 20260506201718 | 7 | 306 | 11.3 | 16.1 | 0.00 | 2.82 | 2.82 | 99 | 1064.4 |
| 20260506201214 | 7 | 316 | 9.7 | 12.9 | 0.00 | 2.82 | 2.82 | 99 | 1064.4 |
| 20260506200711 | 7 | 101 | 11.3 | 17.7 | 0.00 | 2.82 | 2.82 | 99 | 1063.7 |
| 20260506200209 | 7 | 353 | 6.4 | 11.3 | 0.00 | 2.82 | 2.82 | 99 | 1063.9 |
| 20260506195705 | 7 | 140 | 9.7 | 16.1 | 0.00 | 2.82 | 2.82 | 99 | 1064.4 |
| 20260506195201 | 7 | 43 | 6.4 | 11.3 | 0.00 | 2.82 | 2.82 | 99 | 1064.1 |
| 20260506194658 | 7 | 100 | 4.8 | 6.4 | 0.00 | 2.82 | 2.82 | 99 | 1063.9 |
| 20260506194154 | 7 | 325 | 4.8 | 9.7 | 0.00 | 2.82 | 2.82 | 99 | 1063.9 |
| 20260506193652 | 7 | 7 | 14.5 | 16.1 | 0.00 | 2.82 | 2.82 | 99 | 1064.0 |
| 20260506193149 | 7 | 305 | 6.4 | 9.7 | 0.00 | 2.82 | 2.82 | 99 | 1064.1 |
| 20260506192646 | 7 | 3 | 9.7 | 17.7 | 0.00 | 2.82 | 2.82 | 99 | 1063.7 |
| 20260506192142 | 7 | 217 | 4.8 | 6.4 | 0.00 | 2.82 | 2.82 | 99 | 1064.4 |
| 20260506191639 | 7 | 316 | 3.2 | 4.8 | 0.00 | 2.82 | 2.82 | 99 | 1064.9 |
| 20260506191135 | 7 | 167 | 4.8 | 9.7 | 0.00 | 2.82 | 2.82 | 99 | 1064.3 |
| 20260506190633 | 7 | 156 | 3.2 | 3.2 | 0.00 | 2.82 | 2.82 | 99 | 1063.0 |
| 20260506190129 | 7 | 49 | 6.4 | 9.7 | 0.13 | 2.82 | 2.82 | 99 | 1063.0 |
| 20260506185627 | 6 | 86 | 8.0 | 16.1 | 0.13 | 2.82 | 2.82 | 99 | 1062.6 |
| 20260506185123 | 7 | 327 | 9.7 | 16.1 | 0.18 | 2.79 | 2.79 | 99 | 1063.7 |
| 20260506184620 | 7 | 286 | 8.0 | 11.3 | 0.48 | 2.79 | 2.79 | 99 | 1064.4 |
| 20260506184117 | 7 | 191 | 1.6 | 1.6 | 0.43 | 2.77 | 2.77 | 99 | 1065.9 |
| 20260506183614 | 7 | 199 | 1.6 | 1.6 | 0.43 | 2.72 | 2.72 | 99 | 1066.2 |
| 20260506183109 | 6 | 240 | 6.4 | 9.7 | 0.79 | 2.69 | 2.69 | 99 | 1065.3 |
| 20260506182608 | 6 | 1 | 4.8 | 4.8 | 0.66 | 2.64 | 2.64 | 99 | 1064.9 |
| 20260506182104 | 6 | 187 | 6.4 | 9.7 | 0.48 | 2.57 | 2.57 | 99 | 1065.2 |
| 20260506181602 | 6 | 355 | 11.3 | 20.9 | 0.30 | 2.54 | 2.54 | 99 | 1065.0 |
| 20260506181059 | 6 | 329 | 3.2 | 3.2 | 0.18 | 2.51 | 2.51 | 99 | 1065.5 |
| 20260506180555 | 6 | 176 | 3.2 | 4.8 | 0.00 | 2.49 | 2.49 | 99 | 1065.4 |
| 20260506180052 | 6 | 202 | 1.6 | 3.2 | 0.00 | 2.49 | 2.49 | 99 | 1064.7 |
| 20260506175548 | 6 | 57 | 3.2 | 4.8 | 0.13 | 2.49 | 2.49 | 99 | 1064.7 |
| 20260506175045 | 6 | 146 | 3.2 | 9.7 | 0.13 | 2.49 | 2.49 | 99 | 1065.5 |
| 20260506174544 | 6 | 75 | 3.2 | 3.2 | 0.00 | 2.46 | 2.46 | 99 | 1065.4 |
| 20260506174039 | 6 | 8 | 8.0 | 12.9 | 0.00 | 2.46 | 2.46 | 99 | 1065.3 |
| 20260506173537 | 6 | 19 | 8.0 | 12.9 | 0.18 | 2.46 | 2.46 | 99 | 1065.3 |
| 20260506173034 | 6 | 270 | 6.4 | 11.3 | 0.18 | 2.46 | 2.46 | 99 | 1065.6 |
| 20260506172531 | 6 | 320 | 8.0 | 9.7 | 0.00 | 2.44 | 2.44 | 99 | 1066.2 |
| 20260506172027 | 6 | 122 | 6.4 | 9.7 | 0.00 | 2.44 | 2.44 | 99 | 1066.3 |
| 20260506171525 | 6 | 144 | 3.2 | 3.2 | 0.00 | 2.44 | 2.44 | 99 | 1066.6 |
| 20260506171022 | 7 | 108 | 3.2 | 3.2 | 0.13 | 2.44 | 2.44 | 99 | 1065.9 |
| 20260506170520 | 6 | 298 | 3.2 | 3.2 | 0.13 | 2.44 | 2.44 | 99 | 1065.4 |
| 20260506170018 | 6 | 239 | 3.2 | 4.8 | 0.00 | 2.41 | 2.41 | 99 | 1065.6 |
| 20260506165516 | 6 | 270 | 6.4 | 9.7 | 0.00 | 2.41 | 2.41 | 99 | 1066.1 |
| 20260506165011 | 7 | 63 | 6.4 | 6.4 | 0.00 | 2.41 | 2.41 | 99 | 1065.5 |
| 20260506164508 | 6 | 235 | 8.0 | 12.9 | 0.30 | 2.41 | 2.41 | 99 | 1065.1 |
| 20260506164006 | 6 | 309 | 6.4 | 6.4 | 0.30 | 2.41 | 2.41 | 99 | 1065.2 |
| 20260506163501 | 6 | 256 | 8.0 | 14.5 | 0.00 | 2.36 | 2.36 | 99 | 1064.7 |
| 20260506162956 | 6 | 50 | 3.2 | 3.2 | 0.00 | 2.36 | 2.36 | 99 | 1065.1 |
| 20260506162454 | 6 | 49 | 9.7 | 14.5 | 0.00 | 2.36 | 2.36 | 99 | 1064.8 |
| 20260506161951 | 7 | 136 | 8.0 | 14.5 | 0.00 | 2.36 | 2.36 | 99 | 1064.7 |
| 20260506161449 | 7 | 356 | 8.0 | 11.3 | 0.00 | 2.36 | 2.36 | 99 | 1065.1 |
| 20260506160946 | 7 | 65 | 8.0 | 12.9 | 0.00 | 2.36 | 2.36 | 99 | 1065.6 |
| 20260506160443 | 7 | 275 | 6.4 | 6.4 | 0.00 | 2.36 | 2.36 | 99 | 1065.3 |
| 20260506155940 | 7 | 15 | 12.9 | 14.5 | 0.18 | 2.36 | 2.36 | 99 | 1065.1 |
| 20260506155439 | 6 | 138 | 3.2 | 3.2 | 0.18 | 2.36 | 2.36 | 99 | 1064.6 |
| 20260506153605 | 7 | 307 | 4.8 | 6.4 | 0.00 | 2.31 | 2.31 | 99 | 1064.7 |
| 20260506153102 | 7 | 275 | 9.7 | 12.9 | 0.00 | 2.31 | 2.31 | 99 | 1064.8 |
| 20260506152559 | 7 | 304 | 6.4 | 6.4 | 0.00 | 2.31 | 2.31 | 99 | 1064.9 |
| 20260506152057 | 7 | 250 | 4.8 | 4.8 | 0.00 | 2.31 | 2.31 | 99 | 1064.5 |
| 20260506151555 | 7 | 203 | 3.2 | 4.8 | 0.00 | 2.31 | 2.31 | 99 | 1064.0 |
| 20260506151052 | 7 | 257 | 6.4 | 11.3 | 0.00 | 2.31 | 2.31 | 99 | 1063.6 |
| 20260506150548 | 7 | 224 | 11.3 | 17.7 | 0.00 | 2.31 | 2.31 | 99 | 1063.5 |
| 20260506150045 | 6 | 283 | 9.7 | 12.9 | 0.00 | 2.31 | 2.31 | 99 | 1064.2 |
| 20260506145542 | 7 | 332 | 8.0 | 14.5 | 0.00 | 2.31 | 2.31 | 99 | 1064.4 |
| 20260506145039 | 7 | 138 | 9.7 | 17.7 | 0.00 | 2.31 | 2.31 | 99 | 1064.5 |
| 20260506144536 | 7 | 88 | 8.0 | 12.9 | 0.00 | 2.31 | 2.31 | 99 | 1064.3 |
| 20260506144033 | 7 | 319 | 9.7 | 12.9 | 0.18 | 2.31 | 2.31 | 99 | 1064.3 |
| 20260506143531 | 7 | 347 | 11.3 | 16.1 | 0.18 | 2.31 | 2.31 | 99 | 1064.4 |
| 20260506143029 | 7 | 40 | 9.7 | 16.1 | 0.00 | 2.29 | 2.29 | 99 | 1063.7 |
| 20260506142526 | 6 | 91 | 6.4 | 14.5 | 0.00 | 2.29 | 2.29 | 99 | 1063.7 |
| 20260506142024 | 6 | 227 | 8.0 | 11.3 | 0.00 | 2.29 | 2.29 | 99 | 1064.3 |
| 20260506141522 | 7 | 304 | 8.0 | 11.3 | 0.00 | 2.29 | 2.29 | 99 | 1064.3 |
| 20260506141020 | 7 | 278 | 6.4 | 6.4 | 0.00 | 2.29 | 2.29 | 99 | 1064.5 |
| 20260506140517 | 7 | 332 | 12.9 | 14.5 | 0.00 | 2.29 | 2.29 | 99 | 1064.2 |
| 20260506140015 | 7 | 243 | 4.8 | 6.4 | 0.00 | 2.29 | 2.29 | 99 | 1063.7 |
| 20260506135511 | 6 | 351 | 6.4 | 9.7 | 0.00 | 2.29 | 2.29 | 99 | 1063.4 |
| 20260506135007 | 6 | 359 | 4.8 | 6.4 | 0.00 | 2.29 | 2.29 | 99 | 1063.0 |
| 20260506134504 | 6 | 232 | 8.0 | 11.3 | 0.00 | 2.29 | 2.29 | 99 | 1063.3 |
| 20260506134000 | 7 | 234 | 14.5 | 25.7 | 0.00 | 2.29 | 2.29 | 99 | 1063.0 |
| 20260506133457 | 7 | 262 | 6.4 | 6.4 | 0.00 | 2.29 | 2.29 | 99 | 1063.1 |
| 20260506132954 | 7 | 349 | 9.7 | 17.7 | 0.00 | 2.29 | 2.29 | 99 | 1063.3 |
| 20260506132451 | 7 | 6 | 12.9 | 17.7 | 0.00 | 2.29 | 2.29 | 99 | 1063.2 |
| 20260506131948 | 7 | 201 | 8.0 | 14.5 | 0.00 | 2.29 | 2.29 | 99 | 1063.5 |
| 20260506131445 | 7 | 339 | 12.9 | 17.7 | 0.00 | 2.29 | 2.29 | 99 | 1063.2 |
| 20260506130942 | 7 | 65 | 9.7 | 14.5 | 0.00 | 2.29 | 2.29 | 99 | 1063.6 |
| 20260506130438 | 7 | 4 | 8.0 | 14.5 | 0.00 | 2.29 | 2.29 | 99 | 1063.2 |
| 20260506125936 | 7 | 317 | 11.3 | 16.1 | 0.00 | 2.29 | 2.29 | 99 | 1063.4 |
| 20260506125434 | 7 | 328 | 12.9 | 16.1 | 0.00 | 2.29 | 2.29 | 99 | 1063.6 |
| 20260506124932 | 7 | 257 | 4.8 | 9.7 | 0.00 | 2.29 | 2.29 | 99 | 1063.2 |
| 20260506124429 | 8 | 334 | 9.7 | 24.1 | 0.00 | 2.29 | 2.29 | 99 | 1063.1 |
| 20260506123927 | 8 | 295 | 8.0 | 11.3 | 0.13 | 2.29 | 2.29 | 99 | 1063.3 |
| 20260506123425 | 8 | 283 | 9.7 | 12.9 | 0.13 | 2.29 | 2.29 | 99 | 1062.9 |
| 20260506122922 | 8 | 312 | 9.7 | 11.3 | 0.00 | 2.26 | 2.26 | 99 | 1062.9 |
| 20260506122419 | 8 | 216 | 4.8 | 6.4 | 0.00 | 2.26 | 2.26 | 99 | 1062.8 |
| 20260506121918 | 8 | 338 | 14.5 | 17.7 | 0.00 | 2.26 | 2.26 | 99 | 1062.7 |
| 20260506121414 | 8 | 317 | 6.4 | 11.3 | 0.00 | 2.26 | 2.26 | 99 | 1062.3 |
| 20260506120911 | 8 | 61 | 6.4 | 9.7 | 0.00 | 2.26 | 2.26 | 99 | 1062.2 |
| 20260506120408 | 8 | 20 | 8.0 | 17.7 | 0.00 | 2.26 | 2.26 | 99 | 1062.1 |
| 20260506115906 | 8 | 260 | 4.8 | 6.4 | 0.00 | 2.26 | 2.26 | 99 | 1062.2 |
| 20260506115404 | 9 | 26 | 8.0 | 12.9 | 0.00 | 2.26 | 2.26 | 99 | 1061.7 |
| 20260506114902 | 9 | 265 | 6.4 | 12.9 | 0.00 | 2.26 | 2.26 | 99 | 1061.6 |
| 20260506114359 | 9 | 136 | 1.6 | 3.2 | 0.00 | 2.26 | 2.26 | 99 | 1061.4 |
| 20260506113858 | 9 | 327 | 6.4 | 11.3 | 0.18 | 2.26 | 2.26 | 99 | 1061.6 |
| 20260506113355 | 9 | 51 | 3.2 | 6.4 | 0.18 | 2.26 | 2.26 | 99 | 1061.4 |
| 20260506112851 | 10 | 356 | 9.7 | 12.9 | 0.00 | 2.24 | 2.24 | 99 | 1061.4 |
| 20260506112348 | 10 | 239 | 4.8 | 6.4 | 0.00 | 2.24 | 2.24 | 99 | 1060.9 |
| 20260506111846 | 10 | 220 | 4.8 | 6.4 | 0.00 | 2.24 | 2.24 | 99 | 1061.2 |
| 20260506111344 | 10 | 231 | 6.4 | 9.7 | 0.18 | 2.24 | 2.24 | 99 | 1061.2 |
| 20260506110841 | 10 | 323 | 6.4 | 9.7 | 0.18 | 2.24 | 2.24 | 99 | 1061.4 |
| 20260506110338 | 10 | 294 | 9.7 | 11.3 | 0.00 | 2.21 | 2.21 | 99 | 1060.7 |
| 20260506105835 | 10 | 209 | 4.8 | 4.8 | 0.00 | 2.21 | 2.21 | 99 | 1060.5 |
| 20260506105331 | 10 | 179 | 4.8 | 9.7 | 0.00 | 2.21 | 2.21 | 99 | 1060.8 |
| 20260506104829 | 10 | 95 | 3.2 | 3.2 | 0.00 | 2.21 | 2.21 | 99 | 1060.7 |
| 20260506104326 | 10 | 107 | 6.4 | 9.7 | 0.00 | 2.21 | 2.21 | 99 | 1060.5 |
| 20260506103824 | 10 | 311 | 4.8 | 6.4 | 0.00 | 2.21 | 2.21 | 99 | 1060.6 |
| 20260506103321 | 11 | 322 | 8.0 | 9.7 | 0.00 | 2.21 | 2.21 | 99 | 1060.4 |
| 20260506102819 | 11 | 315 | 6.4 | 14.5 | 0.00 | 2.21 | 2.21 | 99 | 1060.7 |
| 20260506102316 | 11 | 321 | 6.4 | 11.3 | 0.00 | 2.21 | 2.21 | 99 | 1059.9 |
| 20260506101814 | 11 | 355 | 8.0 | 9.7 | 0.00 | 2.21 | 2.21 | 99 | 1060.2 |
| 20260506101309 | 11 | 277 | 9.7 | 14.5 | 0.00 | 2.21 | 2.21 | 99 | 1059.6 |
| 20260506100808 | 11 | 294 | 6.4 | 6.4 | 0.13 | 2.21 | 2.21 | 99 | 1059.9 |
| 20260506100306 | 11 | 191 | 3.2 | 3.2 | 0.13 | 2.21 | 2.21 | 99 | 1060.3 |
| 20260506095804 | 11 | 329 | 6.4 | 9.7 | 0.00 | 2.18 | 2.18 | 99 | 1060.1 |
| 20260506095300 | 11 | 170 | 1.6 | 1.6 | 0.00 | 2.18 | 2.18 | 99 | 1060.2 |
| 20260506094757 | 12 | 256 | 3.2 | 4.8 | 0.00 | 2.18 | 2.18 | 99 | 1059.9 |
| 20260506094255 | 12 | 143 | 6.4 | 6.4 | 0.00 | 2.18 | 2.18 | 99 | 1060.1 |
| 20260506093754 | 12 | 6 | 9.7 | 12.9 | 0.00 | 2.18 | 2.18 | 99 | 1059.6 |
| 20260506093250 | 11 | 249 | 3.2 | 3.2 | 0.00 | 2.18 | 2.18 | 99 | 1059.4 |
| 20260506092749 | 11 | 70 | 3.2 | 3.2 | 0.00 | 2.18 | 2.18 | 99 | 1059.7 |
| 20260506092246 | 11 | 335 | 9.7 | 12.9 | 0.00 | 2.18 | 2.18 | 99 | 1059.5 |
| 20260506091743 | 11 | 319 | 8.0 | 12.9 | 0.00 | 2.18 | 2.18 | 99 | 1059.6 |
| 20260506091240 | 11 | 324 | 9.7 | 14.5 | 0.00 | 2.18 | 2.18 | 99 | 1059.7 |
| 20260506090738 | 11 | 314 | 9.7 | 14.5 | 0.00 | 2.18 | 2.18 | 99 | 1059.4 |
| 20260506090235 | 11 | 347 | 4.8 | 6.4 | 0.00 | 2.18 | 2.18 | 99 | 1059.2 |
| 20260506085732 | 12 | 301 | 8.0 | 11.3 | 0.00 | 2.18 | 2.18 | 99 | 1059.2 |
| 20260506085228 | 12 | 49 | 14.5 | 16.1 | 0.00 | 2.18 | 2.18 | 99 | 1059.2 |
| 20260506084725 | 12 | 226 | 9.7 | 12.9 | 0.00 | 2.18 | 2.18 | 99 | 1059.1 |
| 20260506084221 | 12 | 329 | 4.8 | 6.4 | 0.00 | 2.18 | 2.18 | 99 | 1058.8 |
| 20260506083718 | 12 | 328 | 11.3 | 14.5 | 0.00 | 2.18 | 2.18 | 99 | 1059.0 |
| 20260506083216 | 12 | 328 | 8.0 | 9.7 | 0.00 | 2.18 | 2.18 | 99 | 1059.4 |
| 20260506082713 | 13 | 307 | 6.4 | 11.3 | 0.00 | 2.18 | 2.18 | 99 | 1059.6 |
| 20260506082208 | 13 | 342 | 11.3 | 14.5 | 0.00 | 2.18 | 2.18 | 99 | 1059.4 |
| 20260506081706 | 13 | 185 | 3.2 | 6.4 | 0.00 | 2.18 | 2.18 | 99 | 1059.5 |
| 20260506081204 | 13 | 260 | 4.8 | 4.8 | 3.66 | 2.18 | 2.18 | 99 | 1059.4 |
| 20260506080701 | 13 | 200 | 1.6 | 1.6 | 4.14 | 2.18 | 2.18 | 99 | 1059.2 |
| 20260506080158 | 12 | 283 | 9.7 | 12.9 | 0.00 | 1.50 | 1.50 | 99 | 1060.8 |
| 20260506073142 | 13 | 325 | 9.7 | 16.1 | 7.32 | 1.24 | 1.24 | 99 | 1058.2 |
| 20260506072638 | 13 | 265 | 27.4 | 40.2 | 0.97 | 0.15 | 0.15 | 98 | 1060.7 |
| 20260506072136 | 13 | 15 | 9.7 | 12.9 | 0.18 | 0.03 | 0.03 | 98 | 1057.1 |
| 20260506071633 | 13 | 41 | 4.8 | 6.4 | 0.00 | 0.00 | 0.00 | 98 | 1056.6 |
| 20260506071131 | 14 | 296 | 8.0 | 9.7 | 0.00 | 0.00 | 0.00 | 98 | 1057.1 |
| 20260506070627 | 15 | 358 | 8.0 | 11.3 | 0.00 | 0.00 | 0.00 | 98 | 1057.6 |
| 20260506070125 | 15 | 322 | 3.2 | 4.8 | 0.00 | 0.00 | 0.00 | 98 | 1057.8 |
| 20260506062103 | 15 | 17 | 9.7 | 12.9 | 0.00 | 0.00 | 0.00 | 97 | 1058.3 |
| 20260506061558 | 16 | 249 | 4.8 | 4.8 | 0.00 | 0.00 | 0.00 | 97 | 1058.7 |
| 20260506061056 | 16 | 66 | 8.0 | 14.5 | 0.00 | 0.00 | 0.00 | 97 | 1058.5 |